Location: Fort Wayne
(41.1310°N, 85.1290°W)
Time: 11:20:19
(UTC-04:00)

BREEZE-M DEB (TANK) - Visible Passes

Search period start: 24 October 2014 00:00
Search period end: 02 November 2014 23:00
Orbit: 285 x 13634 km, 49.6° (Epoch: 23 October)

Date Brightness Start Highest point End Pass type
(mag) Time Alt. Az. Time Alt. Az. Time Alt. Az.
24 Oct 4.3 05:13:16 33° ESE 05:13:16 33° ESE 05:18:56 10° ENE visible
25 Oct 3.7 06:46:23 24° W 06:49:00 64° NNW 07:02:45 10° ENE visible
27 Oct 3.1 05:36:54 69° E 05:36:54 69° E 05:45:11 10° ENE visible
28 Oct 4.4 07:09:49 15° W 07:13:46 54° N 07:31:08 10° ENE visible
29 Oct 5.6 04:27:12 16° ENE 04:27:12 16° ENE 04:29:10 10° ENE visible
30 Oct 3.0 06:00:00 63° NW 06:00:24 66° NNW 06:11:18 10° ENE visible
31 Oct 4.9 07:32:52 10° WNW 07:38:15 52° N 08:00:45 10° E visible
01 Nov 4.9 04:49:59 28° ENE 04:49:59 28° ENE 04:54:20 10° ENE visible
02 Nov 3.7 05:22:37 38° WNW 05:24:13 52° N 05:37:47 10° ENE visible
